Weather History for KESN - June, 2013

Change the Weather History Date:

Saturday, June 15, 2013

  Actual Average Record
Temperature  
Mean Temperature 72 °F -  
Max Temperature 84 °F 83 °F 96 °F (1956)
Min Temperature 59 °F 63 °F 49 °F (1955)
Cooling Degree Days 6    
Growing Degree Days 22 (Base 50)    
Moisture  
Dew Point 62 °F    
Average Humidity 82    
Maximum Humidity 100    
Minimum Humidity 42    
Precipitation  
Precipitation 0.00 in - - ()
Sea Level Pressure  
Sea Level Pressure 30.04 in    
Wind  
Wind Speed 1 mph (West)    
Max Wind Speed 8 mph    
Max Gust Speed -    
Visibility 10 miles    
Events      
Averages and records for this station are not official NWS values.
T = Trace of Precipitation, MM = Missing Value Source: NWS Daily Summary

Daily Weather History Graph

Daily Weather History Graph

Search for Another Location

Airport or City:

Trip Planner

Search our weather history database for the weather conditions in past years. The results will help you decide how hot, cold, wet, or windy it might be!

Date:

Astronomy

Jun. 15, 2013 Rise Set
Actual Time 5:38 AM EDT 8:31 PM EDT
Civil Twilight 5:06 AM EDT 9:03 PM EDT
Nautical Twilight 4:26 AM EDT 9:43 PM EDT
Astronomical Twilight 3:40 AM EDT 10:29 PM EDT
Moon 12:07 PM EDT (6/15) 12:08 AM EDT (6/15)
Length of Visible Light 15h 56m
Length of Day
14h 52m
Waxing Crescent, 39% of the Moon is Illuminated
Jun 15
Waxing Crescent
Jun 16
First Quarter
Jun 23
Full
Jun 30
Last Quarter
Jul 8
New

Hourly Weather History & Observations

Time (EDT) Temp. Heat Index Dew Point Humidity Pressure Visibility Wind Dir Wind Speed Gust Speed Precip Events Conditions
12:01 AM 63.7 °F - 61.3 °F 92% 29.99 in 10.0 mi Calm Calm - N/A   Clear
12:21 AM 63.5 °F - 61.7 °F 94% 29.99 in 10.0 mi Calm Calm - N/A   Clear
12:41 AM 62.6 °F - 62.4 °F 99% 29.99 in 10.0 mi Calm Calm - N/A   Clear
1:01 AM 63.1 °F - 62.6 °F 98% 29.99 in 10.0 mi Calm Calm - N/A   Clear
1:21 AM 62.6 °F - 61.9 °F 97% 29.99 in 10.0 mi Calm Calm - N/A   Clear
1:41 AM 63.0 °F - 62.1 °F 97% 30.00 in 10.0 mi Calm Calm - N/A   Clear
2:01 AM 62.6 °F - 61.3 °F 96% 30.00 in 10.0 mi Calm Calm - N/A   Clear
2:21 AM 62.6 °F - 61.0 °F 94% 30.00 in 10.0 mi Calm Calm - N/A   Clear
2:41 AM 62.1 °F - 61.3 °F 97% 30.00 in 10.0 mi Calm Calm - N/A   Clear
3:01 AM 62.1 °F - 61.2 °F 97% 30.01 in 10.0 mi Calm Calm - N/A   Clear
3:21 AM 61.7 °F - 61.7 °F 100% 30.01 in 10.0 mi Calm Calm - N/A   Clear
3:41 AM 61.7 °F - 61.7 °F 100% 30.01 in 10.0 mi Calm Calm - N/A   Clear
4:01 AM 61.2 °F - 61.2 °F 100% 30.01 in 10.0 mi Calm Calm - N/A   Clear
4:21 AM 60.8 °F - 60.8 °F 100% 30.01 in 10.0 mi Calm Calm - N/A   Clear
4:41 AM 60.3 °F - 60.3 °F 100% 30.01 in 10.0 mi Calm Calm - N/A   Clear
5:01 AM 60.8 °F - 60.8 °F 100% 30.01 in 10.0 mi Calm Calm - N/A   Clear
5:21 AM 60.3 °F - 60.3 °F 100% 30.02 in 10.0 mi Calm Calm - N/A   Clear
5:41 AM 59.9 °F - 59.9 °F 100% 30.03 in 10.0 mi Calm Calm - N/A   Clear
5:53 AM 60.8 °F - 60.8 °F 100% 30.03 in 10.0 mi Calm Calm - N/A   Clear
6:01 AM 61.0 °F - 61.0 °F 100% 30.04 in 10.0 mi Calm Calm - N/A   Clear
6:21 AM 64.0 °F - 64.0 °F 100% 30.05 in 10.0 mi Calm Calm - N/A   Clear
6:41 AM 68.0 °F - 64.2 °F 88% 30.05 in 7.0 mi Calm Calm - N/A   Clear
6:53 AM 68.0 °F - 64.4 °F 88% 30.07 in 10.0 mi Calm Calm - N/A   Clear
7:02 AM 68.7 °F - 64.9 °F 88% 30.07 in 10.0 mi Calm Calm - N/A   Clear
7:22 AM 73.0 °F - 67.1 °F 82% 30.07 in 10.0 mi Calm Calm - N/A   Clear
7:42 AM 71.8 °F - 65.8 °F 81% 30.07 in 10.0 mi Calm Calm - N/A   Clear
7:53 AM 71.6 °F - 66.2 °F 83% 30.07 in 10.0 mi Calm Calm - N/A   Clear
8:48 AM 73.4 °F - 64.4 °F 73% 30.10 in 10.0 mi Calm Calm - N/A   Clear
9:48 AM 75.2 °F - 62.6 °F 65% 30.10 in 10.0 mi North 4.6 mph - N/A   Clear
10:49 AM 77.0 °F - 62.6 °F 61% 30.10 in 10.0 mi NW 8.1 mph - N/A   Partly Cloudy
11:56 AM 78.8 °F - 59.0 °F 51% 30.08 in 10.0 mi WNW 8.1 mph - N/A   Partly Cloudy
12:46 PM 80.6 °F 81.1 °F 59.0 °F 48% 30.08 in 10.0 mi NW 8.1 mph - N/A   Scattered Clouds
1:50 PM 80.6 °F 81.5 °F 60.8 °F 51% 30.07 in 10.0 mi NW 8.1 mph - N/A   Scattered Clouds
2:52 PM 82.4 °F 82.5 °F 59.0 °F 45% 30.05 in 10.0 mi WSW 6.9 mph - N/A   Scattered Clouds
3:52 PM 82.4 °F 82.5 °F 59.0 °F 45% 30.05 in 10.0 mi West 5.8 mph - N/A   Scattered Clouds
4:50 PM 82.4 °F 82.5 °F 59.0 °F 45% 30.04 in 10.0 mi WSW 6.9 mph - N/A   Scattered Clouds
5:50 PM 84.2 °F 83.8 °F 59.0 °F 42% 30.03 in 10.0 mi WNW 4.6 mph - N/A   Mostly Cloudy
6:50 PM 82.4 °F 82.5 °F 59.0 °F 45% 30.03 in 10.0 mi WSW 4.6 mph - N/A   Scattered Clouds
7:51 PM 78.8 °F - 62.6 °F 57% 30.04 in 10.0 mi WSW 3.5 mph - N/A   Scattered Clouds
8:50 PM 73.4 °F - 64.4 °F 73% 30.05 in 10.0 mi Calm Calm - N/A   Partly Cloudy
11:03 PM 70.0 °F - 64.9 °F 84% 30.06 in 10.0 mi Calm Calm - N/A   Clear
11:23 PM 69.8 °F - 65.7 °F 87% 30.06 in 10.0 mi Calm Calm - N/A   Clear
11:43 PM 69.4 °F - 66.2 °F 89% 30.06 in 10.0 mi Calm Calm - N/A   Clear